EST,Max TemperatureF,Mean TemperatureF,Min TemperatureF,Max Dew PointF,MeanDew PointF,Min DewpointF,Max Humidity, Mean Humidity, Min Humidity, Max Sea Level PressureIn, Mean Sea Level PressureIn, Min Sea Level PressureIn, Max VisibilityMiles, Mean VisibilityMiles, Min VisibilityMiles, Max Wind SpeedMPH, Mean Wind SpeedMPH, Max Gust SpeedMPH,PrecipitationIn, CloudCover, Events, WindDirDegrees
2013-1-1,39,34,27,32,22,12,79,58,49,29.90,29.80,29.75,10,10,10,24,18,32,0.00,2,,292
2013-1-2,32,26,21,16,12,8,58,52,47,30.06,29.96,29.91,10,10,10,20,14,28,0.00,0,,305
2013-1-3,28,22,17,15,8,4,65,57,42,30.12,30.07,30.03,10,10,10,16,11,25,0.00,1,,302
2013-1-4,39,32,26,29,25,16,82,67,47,30.01,29.93,29.87,10,10,10,25,12,34,0.00,2,,270
2013-1-5,42,34,26,26,24,21,81,63,45,30.26,30.12,29.90,10,10,10,23,14,32,0.00,0,,287
2013-1-6,44,36,27,37,34,23,96,87,76,30.22,30.06,29.96,10,9,7,17,6,23,0.02,4,Rain,260
2013-1-7,41,34,26,33,30,23,96,82,67,30.41,30.21,29.99,10,8,2,20,8,25,0.00,1,,325
2013-1-8,48,42,37,39,36,32,93,81,66,30.42,30.38,30.33,10,10,7,20,12,29,0.00,2,,235
2013-1-9,46,37,28,45,37,28,100,93,76,30.41,30.28,30.07,10,6,0,24,5,31,0.00,3,Fog,226
2013-1-10,46,41,36,36,28,23,79,58,40,30.49,30.33,30.11,10,10,10,23,15,37,0.00,0,,299
2013-1-11,44,38,32,39,34,28,96,83,65,30.49,30.39,30.25,10,10,5,9,6,,0.11,2,Rain,56
2013-1-12,46,42,39,46,43,38,100,96,93,30.22,30.15,30.11,10,7,2,15,10,23,0.07,8,Rain,96
2013-1-13,46,45,44,47,45,43,100,99,93,30.18,30.12,30.06,10,2,0,12,7,,0.00,8,Fog,168
2013-1-14,51,48,44,52,47,35,100,98,71,30.21,30.05,29.97,10,2,0,18,10,24,0.00,8,Fog,234
2013-1-15,43,41,39,40,38,35,100,89,74,30.27,30.23,30.20,10,9,5,16,10,,0.25,8,Rain,350
2013-1-16,45,42,39,45,40,38,100,96,87,30.21,29.97,29.72,10,6,0,24,9,31,0.79,8,Fog-Rain,75
2013-1-17,41,38,35,38,33,28,93,80,60,30.06,29.97,29.88,10,10,9,22,12,26,0.00,3,Rain,287
2013-1-18,35,26,16,28,17,0,100,73,34,30.49,30.18,29.98,10,5,0,28,20,37,0.01,4,Fog-Snow,343
2013-1-19,46,36,27,42,34,12,90,77,53,30.44,30.23,30.02,10,9,5,28,19,37,0.00,3,,217
2013-1-20,50,42,33,45,38,15,97,77,48,29.97,29.81,29.65,10,8,5,23,17,30,0.00,1,,236
2013-1-21,32,30,27,31,21,9,100,72,43,30.11,29.95,29.74,10,6,1,18,11,26,0.13,5,Snow,312
2013-1-22,30,24,18,30,19,-5,100,77,33,30.05,29.80,29.70,10,6,1,23,12,30,0.01,6,Snow,317
2013-1-23,17,14,12,3,-1,-4,59,49,43,30.15,30.10,30.05,10,10,9,24,18,33,0.00,5,,299
2013-1-24,19,14,10,2,-2,-6,62,48,38,30.19,30.10,30.02,10,10,10,26,18,37,0.00,0,,310
2013-1-25,28,21,14,20,7,-3,84,56,45,30.30,30.20,30.02,10,10,9,24,15,33,0.00,2,,299
2013-1-26,25,22,18,21,15,1,93,74,40,30.19,30.01,29.96,10,8,2,24,12,33,0.00,5,Snow,329
2013-1-27,28,22,17,9,5,3,56,47,36,30.45,30.35,30.20,10,10,10,26,20,40,0.00,0,,313
2013-1-28,36,29,23,36,22,4,100,75,36,30.44,30.20,29.98,10,6,2,12,8,,0.07,6,Rain-Snow,103
2013-1-29,37,35,33,36,35,34,100,98,93,30.20,30.10,29.98,10,3,0,12,5,,0.01,8,Fog,9
2013-1-30,48,44,41,48,45,40,100,96,93,30.17,29.86,29.61,10,3,0,22,14,30,0.03,6,Fog-Rain,170
2013-1-31,53,44,34,52,38,17,100,77,50,29.65,29.40,29.14,10,5,0,32,23,45,0.25,5,Fog-Rain,206